Time,TemperatureF,DewpointF,PressureIn,WindDirection,WindDirectionDegrees,WindSpeedMPH,WindSpeedGustMPH,Humidity,HourlyPrecipIn,Conditions,Clouds,dailyrainin,SoftwareType,DateUTC
2013-04-11 00:00:00,61.7,44.9,29.79,North,0,0.0,0.0,54,0.00,,,0.00,WUHU216HW,2013-04-11 04:00:00,
2013-04-11 00:05:00,61.6,44.7,29.79,North,0,0.0,0.0,54,0.00,,,0.00,WUHU216HW,2013-04-11 04:05:00,
2013-04-11 00:10:00,61.6,45.7,29.79,NNW,338,0.4,1.3,56,0.00,,,0.00,WUHU216HW,2013-04-11 04:10:00,
2013-04-11 00:15:00,61.6,45.2,29.79,NNW,338,0.0,1.3,55,0.00,,,0.00,WUHU216HW,2013-04-11 04:15:00,
2013-04-11 00:20:00,61.2,44.9,29.79,NNW,338,0.0,0.4,55,0.00,,,0.00,WUHU216HW,2013-04-11 04:20:00,
2013-04-11 00:25:00,61.0,45.2,29.78,NNW,338,0.0,0.0,56,0.00,,,0.00,WUHU216HW,2013-04-11 04:25:00,
2013-04-11 00:30:00,60.8,45.0,29.79,WSW,248,0.0,0.0,56,0.00,,,0.00,WUHU216HW,2013-04-11 04:30:00,
2013-04-11 00:35:00,60.7,44.8,29.78,WSW,248,0.0,0.9,56,0.00,,,0.00,WUHU216HW,2013-04-11 04:35:00,
2013-04-11 00:40:00,60.5,45.2,29.79,West,270,0.0,0.9,57,0.00,,,0.00,WUHU216HW,2013-04-11 04:40:00,
2013-04-11 00:45:00,60.5,45.6,29.79,NNW,338,0.0,0.0,58,0.00,,,0.00,WUHU216HW,2013-04-11 04:45:00,
2013-04-11 00:50:00,60.3,46.0,29.79,NW,315,0.0,0.0,59,0.00,,,0.00,WUHU216HW,2013-04-11 04:50:00,
2013-04-11 00:55:00,60.1,45.8,29.79,ESE,113,0.0,0.0,59,0.00,,,0.00,WUHU216HW,2013-04-11 04:55:00,
2013-04-11 01:00:00,60.1,45.8,29.79,ESE,113,0.0,0.0,59,0.00,,,0.00,WUHU216HW,2013-04-11 05:00:00,
2013-04-11 01:05:00,59.9,45.6,29.79,East,90,0.0,0.0,59,0.00,,,0.00,WUHU216HW,2013-04-11 05:05:00,
2013-04-11 01:10:00,59.8,45.5,29.79,WSW,248,0.0,0.4,59,0.00,,,0.00,WUHU216HW,2013-04-11 05:10:00,
2013-04-11 01:15:00,59.6,45.7,29.79,WSW,248,0.0,0.4,60,0.00,,,0.00,WUHU216HW,2013-04-11 05:15:00,
2013-04-11 01:20:00,59.4,45.5,29.79,NNW,338,0.0,0.0,60,0.00,,,0.00,WUHU216HW,2013-04-11 05:20:00,
2013-04-11 01:25:00,59.0,45.2,29.79,NNW,338,0.0,0.0,60,0.00,,,0.00,WUHU216HW,2013-04-11 05:25:00,
2013-04-11 01:30:00,58.9,45.0,29.79,NNW,338,0.0,0.0,60,0.00,,,0.00,WUHU216HW,2013-04-11 05:30:00,
2013-04-11 01:35:00,58.7,45.3,29.79,NNW,338,0.0,0.0,61,0.00,,,0.00,WUHU216HW,2013-04-11 05:35:00,
2013-04-11 01:40:00,58.7,45.7,29.79,NNW,338,0.0,0.0,62,0.00,,,0.00,WUHU216HW,2013-04-11 05:40:00,
2013-04-11 01:45:00,58.5,45.1,29.79,NNW,338,0.0,0.0,61,0.00,,,0.00,WUHU216HW,2013-04-11 05:45:00,
2013-04-11 01:50:00,58.1,45.6,29.79,ENE,68,0.0,0.0,63,0.00,,,0.00,WUHU216HW,2013-04-11 05:50:00,
2013-04-11 01:55:00,57.8,46.1,29.79,East,90,0.0,0.0,65,0.00,,,0.00,WUHU216HW,2013-04-11 05:55:00,
2013-04-11 02:00:00,57.4,45.3,29.79,East,90,0.4,0.7,64,0.00,,,0.00,WUHU216HW,2013-04-11 06:00:00,
2013-04-11 02:05:00,57.2,45.2,29.78,ENE,68,0.7,1.1,64,0.00,,,0.00,WUHU216HW,2013-04-11 06:05:00,
2013-04-11 02:10:00,56.9,44.8,29.78,ENE,68,0.0,1.1,64,0.00,,,0.00,WUHU216HW,2013-04-11 06:10:00,
2013-04-11 02:15:00,56.5,44.5,29.78,NE,45,0.0,0.7,64,0.00,,,0.00,WUHU216HW,2013-04-11 06:15:00,
2013-04-11 02:20:00,56.2,44.9,29.78,NE,45,0.4,0.4,66,0.00,,,0.00,WUHU216HW,2013-04-11 06:20:00,
2013-04-11 02:25:00,55.8,45.0,29.78,NE,45,0.0,0.4,67,0.00,,,0.00,WUHU216HW,2013-04-11 06:25:00,
2013-04-11 02:30:00,55.8,44.6,29.78,NE,45,0.0,0.4,66,0.00,,,0.00,WUHU216HW,2013-04-11 06:30:00,
2013-04-11 02:35:00,55.8,45.4,29.78,East,90,0.0,0.7,68,0.00,,,0.00,WUHU216HW,2013-04-11 06:35:00,
2013-04-11 02:40:00,55.4,45.1,29.77,SSE,158,0.4,0.7,68,0.00,,,0.00,WUHU216HW,2013-04-11 06:40:00,
2013-04-11 02:45:00,55.4,44.6,29.78,ENE,68,0.0,0.4,67,0.00,,,0.00,WUHU216HW,2013-04-11 06:45:00,
2013-04-11 02:50:00,55.3,44.1,29.78,SW,225,0.0,0.4,66,0.00,,,0.00,WUHU216HW,2013-04-11 06:50:00,
2013-04-11 02:55:00,55.1,44.3,29.78,SW,225,0.0,0.0,67,0.00,,,0.00,WUHU216HW,2013-04-11 06:55:00,
2013-04-11 03:00:00,54.9,44.1,29.78,SW,225,0.0,0.0,67,0.00,,,0.00,WUHU216HW,2013-04-11 07:00:00,
2013-04-11 03:05:00,54.5,44.2,29.78,North,0,0.0,0.4,68,0.00,,,0.00,WUHU216HW,2013-04-11 07:05:00,
2013-04-11 03:10:00,54.4,44.5,29.77,North,0,0.0,0.4,69,0.00,,,0.00,WUHU216HW,2013-04-11 07:10:00,
2013-04-11 03:15:00,54.0,44.1,29.77,North,0,0.0,0.4,69,0.00,,,0.00,WUHU216HW,2013-04-11 07:15:00,
2013-04-11 03:20:00,54.0,44.1,29.77,WSW,248,0.0,0.7,69,0.00,,,0.00,WUHU216HW,2013-04-11 07:20:00,